Location: Hamayl? Da??
(36.7028°N, 30.1716°E)
Time: 06:01:30
(UTC+00:00)

NOSS 3-2 (C) - Pass Details

Date: 04 August 2024
Orbit: 707 x 1504 km, 63.4° (Epoch: 11 August)

Event Time Altitude Azimuth Distance (km) Brightness Sun altitude
Rises 20:10:36 0° 329° (NNW) 4,009 7.9 -29.9°
Reaches altitude 10° 20:13:10 10° 332° (NNW) 3,150 7.1 -30.2°
Maximum altitude 20:20:58 72° 57° (ENE) 1,420 4.2 -31.0°
Enters shadow 20:22:12 64° 106° (ESE) 1,513 4.1 -31.1°
